MET-2/21
1 22782U 93055A   05314.56614857  .00000034  00000-0  16782-4 0  3481
2 22782 082.5458 144.8884 0023992 074.2292 286.1579 13.83598689615812
OKEAN-4
1 23317U 94066A   05314.50645673  .00000358  00000-0  41716-4 0  7829
2 23317 082.5360 120.9622 0023009 018.9542 341.2542 14.82257431597589
NOAA-14
1 23455U 94089A   05314.38086446 -.00000151  00000-0 -55468-4 0  8586
2 23455 099.0720 004.9681 0008659 311.2678 048.7734 14.13609993560157
SICH-1
1 23657U 95046A   05313.40756571  .00000384  00000-0  46029-4 0 05877
2 23657 082.5268 262.8242 0024686 009.7358 350.4328 14.81260727549450
NOAA-15
1 25338U 98030A   05314.44679821  .00000041  00000-0  35903-4 0  2683
2 25338 098.5144 318.3479 0009834 296.3857 063.6319 14.24547181389570
RESURS
1 25394U 98043A   05313.79219603  .00000036  00000-0  34305-4 0 02414
2 25394 098.5230 018.7475 0002351 091.8587 268.2869 14.24085970381174
FENGYUN1
1 25730U 99025A   05313.28025754 -.00000111  00000-0 -38015-4 0 05708
2 25730 098.6147 309.3161 0015256 048.9438 311.3059 14.11801016334984
OKEAN-0
1 25860U 99039A   05313.57633256  .00000102  00000-0  22945-4 0 05872
2 25860 097.7470 333.0145 0001823 087.9310 272.2124 14.73311046339418
NOAA-16
1 26536U 00055A   05314.44773069  .00000397  00000-0  24045-3 0  6124
2 26536 099.0358 273.8745 0010761 019.8737 340.2851 14.12289874264702
NOAA-17
1 27453U 02032A   05314.39991152 -.00000014  00000-0  13016-4 0  6325
2 27453 098.6469 025.6033 0011555 355.6962 004.4146 14.23719168175641
NOAA-18
1 28654U 05018A   05314.43580959 -.00000119  00000-0 -42185-4 0  2311
2 28654 098.7613 257.6940 0014990 118.9568 241.3111 14.10898343 24533
HUBBLE
1 20580U 90037B   05314.38851941  .00000631  00000-0  36625-4 0  4672
2 20580 028.4686 036.0442 0003287 022.5200 337.5561 14.99887754652219
UARS
1 21701U 91063B   05313.50198341  .00000484  00000-0  24173-4 0  6009
2 21701 056.9792 315.8270 0116709 148.7894 212.0155 15.31478026775431
PO-34
1 25520U 98064B   05314.54772168  .00000898  00000-0  35103-4 0  3191
2 25520 028.4567 053.6219 0005227 022.4361 337.6459 15.16505570388829
ISS
1 25544U 98067A   05315.03278935  .00044404  00000-0  33339-3 0  7281
2 25544 051.6496 228.2490 0008637 266.6689 280.7700 15.72085625398798
OO-38
1 26063U 00004C   05314.68273653  .00000054  00000-0  38724-4 0  4806
2 26063 100.1916 201.3604 0037160 003.4264 356.7165 14.35741044303315
NO-45
1 26932U 01043D   05313.04650233 -.00000081  00000-0  76627-6 0 01711
2 26932 067.0572 214.3692 0003746 280.6081 079.4594 14.29504617214502
